Grayling, MI

11:46 AM EDT on October 18, 2017 (GMT -0400)
Grayling

Weather History for KGOV - October, 2012

Change the Weather History Date:

Saturday, October 6, 2012

  Actual Average (KHTL) Record (KHTL)
Temperature  
Mean Temperature 42 °F -  
Max Temperature 47 °F 57 °F 83 °F (1963)
Min Temperature 37 °F 39 °F 16 °F (1923)
Degree Days  
Heating Degree Days 23    
Moisture  
Dew Point 37 °F    
Average Humidity 85    
Maximum Humidity 100    
Minimum Humidity 57    
Precipitation  
Precipitation 0.00 in - - ()
Sea Level Pressure  
Sea Level Pressure 29.95 in    
Wind  
Wind Speed 8 mph (West)    
Max Wind Speed 16 mph    
Max Gust Speed 25 mph    
Visibility 9 miles    
Events Rain    
Averages and records for this station are not official NWS values.
T = Trace of Precipitation, MM = Missing Value Source: NWS Daily Summary

Daily Weather History Graph

Daily Weather History Graph

Search for Another Location

Airport or City:

Trip Planner

Search our weather history database for the weather conditions in past years. The results will help you decide how hot, cold, wet, or windy it might be!

Date:

Astronomy

Oct. 06, 2012 Rise Set
Actual Time 7:43 AM EDT 7:09 PM EDT
Civil Twilight 7:14 AM EDT 7:38 PM EDT
Nautical Twilight 6:40 AM EDT 8:12 PM EDT
Astronomical Twilight 6:06 AM EDT 8:46 PM EDT
Moon 11:13 PM EDT (10/6) 1:48 PM EDT (10/6)
Length of Visible Light 12h 24m
Length of Day
11h 25m
Waning Gibbous, 65% of the Moon is Illuminated
Oct 6
Waning Gibbous
Oct 8
Last Quarter
Oct 15
New
Oct 21
First Quarter
Oct 29
Full

Hourly Weather History & Observations

Time (EDT) Temp. Windchill Dew Point Humidity Pressure Visibility Wind Dir Wind Speed Gust Speed Precip Events Conditions
12:12 AM 47.3 °F - 34.9 °F 62% 29.87 in 10.0 mi WNW 8.1 mph 18.4 mph N/A   Overcast
12:32 AM 46.8 °F - 34.5 °F 62% 29.87 in 10.0 mi WNW 11.5 mph 17.3 mph N/A   Overcast
12:52 AM 45.0 °F 41.8 °F 33.1 °F 63% 29.87 in 10.0 mi West 5.8 mph - N/A   Overcast
1:12 AM 45.7 °F 43.4 °F 33.3 °F 62% 29.86 in 10.0 mi West 4.6 mph - N/A   Overcast
1:32 AM 44.8 °F 39.4 °F 32.7 °F 63% 29.86 in 10.0 mi West 10.4 mph - N/A   Overcast
1:52 AM 44.6 °F 39.7 °F 32.0 °F 61% 29.86 in 10.0 mi West 9.2 mph - N/A   Overcast
2:12 AM 44.1 °F 38.1 °F 30.6 °F 59% 29.87 in 10.0 mi West 11.5 mph 23.0 mph N/A   Overcast
2:53 AM 43.3 °F 39.2 °F 28.9 °F 57% 29.86 in 10.0 mi West 6.9 mph 18.4 mph N/A   Overcast
3:13 AM 42.8 °F 37.5 °F 29.1 °F 58% 29.86 in 10.0 mi West 9.2 mph 17.3 mph N/A   Overcast
3:33 AM 42.8 °F 37.5 °F 28.9 °F 58% 29.86 in 10.0 mi WSW 9.2 mph 17.3 mph N/A   Overcast
3:53 AM 42.3 °F 36.3 °F 29.3 °F 60% 29.86 in 10.0 mi West 10.4 mph - N/A   Overcast
4:13 AM 42.1 °F 38.4 °F 31.1 °F 65% 29.86 in 10.0 mi West 5.8 mph - N/A   Overcast
4:33 AM 41.0 °F 36.4 °F 31.1 °F 68% 29.86 in 10.0 mi West 6.9 mph 17.3 mph N/A   Overcast
4:53 AM 41.9 °F 35.4 °F 31.8 °F 67% 29.85 in 10.0 mi West 11.5 mph 16.1 mph N/A   Overcast
5:33 AM 40.3 °F 35.5 °F 32.0 °F 72% 29.84 in 10.0 mi WSW 6.9 mph - N/A   Mostly Cloudy
5:54 AM 40.1 °F 35.3 °F 32.9 °F 75% 29.85 in 10.0 mi WSW 6.9 mph - N/A   Mostly Cloudy
6:14 AM 40.5 °F 35.8 °F 33.8 °F 77% 29.84 in 10.0 mi WSW 6.9 mph - N/A   Overcast
6:34 AM 39.7 °F 33.7 °F 33.8 °F 79% 29.84 in 10.0 mi WSW 9.2 mph 16.1 mph N/A   Mostly Cloudy
6:54 AM 39.6 °F 33.5 °F 34.7 °F 83% 29.85 in 10.0 mi WSW 9.2 mph - N/A   Mostly Cloudy
7:14 AM 39.6 °F 33.5 °F 36.0 °F 87% 29.86 in 7.0 mi West 9.2 mph - N/A   Drizzle
7:34 AM 39.6 °F 34.0 °F 37.0 °F 91% 29.86 in 7.0 mi WSW 8.1 mph - N/A Rain Light Rain
7:54 AM 39.6 °F 34.0 °F 37.8 °F 93% 29.87 in 5.0 mi WSW 8.1 mph - N/A Rain Light Rain
8:14 AM 39.6 °F 34.0 °F 38.3 °F 95% 29.87 in 4.0 mi West 8.1 mph - N/A Rain Rain
8:35 AM 39.6 °F 33.5 °F 39.2 °F 99% 29.88 in 7.0 mi WSW 9.2 mph - N/A Rain Light Rain
8:55 AM 39.6 °F 34.0 °F 38.8 °F 97% 29.89 in 10.0 mi West 8.1 mph - N/A Rain Light Rain
9:10 AM 39.6 °F 34.0 °F 38.8 °F 97% 29.89 in 7.0 mi West 8.1 mph - N/A Rain Light Rain
9:30 AM 40.5 °F 34.6 °F 39.6 °F 97% 29.89 in 7.0 mi WSW 9.2 mph - N/A   Light Drizzle
9:50 AM 41.0 °F 35.2 °F 39.2 °F 93% 29.90 in 10.0 mi West 9.2 mph - N/A   Overcast
10:10 AM 41.2 °F 36.0 °F 39.2 °F 93% 29.90 in 10.0 mi West 8.1 mph - N/A Rain Light Rain
10:30 AM 40.6 °F 35.4 °F 39.6 °F 96% 29.91 in 3.0 mi WNW 8.1 mph 17.3 mph N/A Rain Rain
10:51 AM 41.0 °F 33.9 °F 39.9 °F 96% 29.92 in 5.0 mi NW 12.7 mph 23.0 mph N/A Rain Rain
11:11 AM 42.3 °F 37.9 °F 41.5 °F 97% 29.93 in 10.0 mi WNW 6.9 mph - N/A Rain Light Rain
11:31 AM 39.6 °F 33.5 °F 37.6 °F 93% 29.94 in 2.5 mi WNW 9.2 mph 21.9 mph N/A Rain Rain
11:51 AM 42.3 °F 36.3 °F 41.4 °F 97% 29.93 in 7.0 mi West 10.4 mph 16.1 mph N/A Rain Light Rain
12:11 PM 43.2 °F 36.6 °F 39.9 °F 88% 29.94 in 10.0 mi West 12.7 mph 20.7 mph N/A   Mostly Cloudy
12:31 PM 44.2 °F 38.8 °F 40.8 °F 88% 29.94 in 10.0 mi West 10.4 mph 16.1 mph N/A   Scattered Clouds
12:51 PM 43.0 °F 35.7 °F 39.2 °F 86% 29.95 in 4.0 mi WNW 15.0 mph 25.3 mph N/A Rain Rain
1:11 PM 44.1 °F 39.0 °F 42.1 °F 93% 29.94 in 10.0 mi NW 9.2 mph 17.3 mph N/A Rain Light Rain
1:31 PM 45.0 °F 38.2 °F 40.1 °F 83% 29.95 in 10.0 mi West 15.0 mph 24.2 mph N/A   Mostly Cloudy
1:52 PM 47.7 °F - 41.2 °F 78% 29.96 in 10.0 mi NW 12.7 mph 21.9 mph N/A   Scattered Clouds
2:12 PM 43.5 °F 38.3 °F 39.2 °F 85% 29.96 in 10.0 mi NW 9.2 mph - N/A   Mostly Cloudy
2:32 PM 41.4 °F 34.3 °F 39.2 °F 92% 29.97 in 7.0 mi NW 12.7 mph 23.0 mph N/A Rain Light Rain
2:52 PM 44.4 °F 38.6 °F 39.9 °F 84% 29.97 in 10.0 mi WNW 11.5 mph 19.6 mph N/A   Clear
3:12 PM 46.8 °F - 38.3 °F 72% 29.97 in 10.0 mi WNW 15.0 mph 24.2 mph N/A   Scattered Clouds
3:32 PM 44.2 °F 37.0 °F 36.5 °F 74% 29.98 in 10.0 mi NW 16.1 mph 21.9 mph N/A   Mostly Cloudy
3:52 PM 43.7 °F 37.3 °F 37.0 °F 77% 29.99 in 7.0 mi WNW 12.7 mph 21.9 mph N/A Rain Light Rain
4:12 PM 41.4 °F 34.7 °F 36.7 °F 83% 30.00 in 7.0 mi West 11.5 mph 23.0 mph N/A Rain Light Rain
4:32 PM 44.4 °F 39.0 °F 39.9 °F 84% 30.00 in 10.0 mi West 10.4 mph 16.1 mph N/A   Scattered Clouds
4:53 PM 43.3 °F 35.8 °F 36.9 °F 78% 30.00 in 10.0 mi WNW 16.1 mph 21.9 mph N/A   Scattered Clouds
5:13 PM 44.1 °F 39.0 °F 36.5 °F 75% 30.00 in 10.0 mi WNW 9.2 mph - N/A   Scattered Clouds
5:33 PM 43.9 °F 38.8 °F 37.2 °F 77% 30.00 in 10.0 mi West 9.2 mph - N/A   Mostly Cloudy
5:53 PM 39.6 °F 34.7 °F 37.4 °F 92% 30.01 in 1.8 mi WNW 6.9 mph - N/A Rain Rain
6:13 PM 41.0 °F 36.4 °F 39.6 °F 95% 30.02 in 10.0 mi WNW 6.9 mph - N/A   Scattered Clouds
6:33 PM 39.7 °F 34.3 °F 38.5 °F 95% 30.04 in 10.0 mi NW 8.1 mph - N/A Rain Light Rain
6:53 PM 39.6 °F 34.7 °F 38.3 °F 95% 30.04 in 10.0 mi West 6.9 mph - N/A   Scattered Clouds
7:13 PM 37.8 °F 35.3 °F 37.2 °F 98% 30.05 in 10.0 mi West 3.5 mph - N/A   Scattered Clouds
7:33 PM 39.4 °F - 39.2 °F 99% 30.06 in 10.0 mi Calm Calm - N/A   Overcast
7:54 PM 38.5 °F - 38.1 °F 99% 30.06 in 10.0 mi Calm Calm - N/A   Overcast
8:14 PM 37.0 °F - 36.9 °F 99% 30.06 in 10.0 mi Calm Calm - N/A   Overcast
8:34 PM 37.0 °F - 37.0 °F 100% 30.06 in 5.0 mi Calm Calm - N/A   Overcast
8:54 PM 37.0 °F - 37.0 °F 100% 30.08 in 10.0 mi Calm Calm - N/A   Overcast
9:14 PM 37.0 °F - 37.0 °F 100% 30.08 in 10.0 mi Calm Calm - N/A   Overcast
9:34 PM 37.0 °F - 37.0 °F 100% 30.08 in 10.0 mi Calm Calm - N/A   Overcast
9:54 PM 37.0 °F 33.3 °F 37.0 °F 100% 30.08 in 10.0 mi West 4.6 mph - N/A   Overcast
10:14 PM 37.0 °F 34.5 °F 37.0 °F 100% 30.09 in 10.0 mi WSW 3.5 mph - N/A   Overcast
10:35 PM 37.6 °F 34.0 °F 37.6 °F 100% 30.09 in 10.0 mi West 4.6 mph - N/A   Overcast
10:55 PM 37.0 °F 34.5 °F 37.0 °F 100% 30.09 in 10.0 mi WSW 3.5 mph - N/A   Overcast
11:10 PM 37.0 °F 34.5 °F 37.0 °F 100% 30.09 in 10.0 mi West 3.5 mph - N/A   Overcast
11:30 PM 37.0 °F 33.3 °F 37.0 °F 100% 30.09 in 10.0 mi West 4.6 mph - N/A   Overcast
11:50 PM 37.0 °F 33.3 °F 37.0 °F 100% 30.10 in 10.0 mi West 4.6 mph - N/A   Overcast